Location: *
(50.8160°S, 176.0219°W)
Time: 00:42:07
(UTC+00:00)

Cosmos 1809 Rocket - Pass Details

Date: 19 May 2026
Orbit: 941 x 962 km, 82.5° (Epoch: 9 June)

Event Time Altitude Azimuth Distance (km) Brightness Sun altitude
Rises 16:35:30 0° 194° (SSW) 3,649 7.4 -25.5°
Enters shadow 16:36:08 - 195° (SSW) 3,409 7.2 -25.4°
Exits shadow 16:44:07 53° 276° (W) 1,162 4.5 -24.1°
Drops below altitude 10° 16:49:56 10° 347° (NNW) 2,675 6.7 -23.2°
Sets 16:52:28 0° 351° (N) 3,615 7.4 -22.8°
